Location: Asheville, NC
(35.6000°N, 82.5500°W)
Time: 15:31:34
(UTC-04:00)

XW-2F - Pass Details

Date: 11 March 2018
Orbit: 506 x 526 km, 97.5° (Epoch: 24 June)

Event Time Altitude Azimuth Distance (km) Brightness Sun altitude
Rises 06:47:39 0° 29° (NNE) 2,651 ? -12.8°
Reaches altitude 10° 06:50:12 10° 47° (NE) 1,762 ? -12.3°
Maximum altitude 06:53:02 20° 95° (E) 1,262 ? -11.7°
Drops below altitude 10° 06:55:51 10° 143° (SE) 1,759 ? -11.1°
Sets 06:58:23 0° 161° (SSE) 2,645 ? -10.6°
